Date,TemperatureHighF,TemperatureAvgF,TemperatureLowF,DewpointHighF,DewpointAvgF,DewpointLowF,HumidityHigh,HumidityAvg,HumidityLow,PressureMaxIn,PressureMinIn,WindSpeedMaxMPH,WindSpeedAvgMPH,GustSpeedMaxMPH,PrecipitationSumIn
2013-1-1,25.0,16.5,11.0,-99.9,-99.9,-99.9,0,0,100,0.00,0.00,13,4,15,0.00
2013-1-2,33.0,24.4,14.0,-99.9,-99.9,-99.9,0,0,100,0.00,0.00,19,13,22,0.00
2013-1-3,27.0,23.0,18.0,-99.9,-99.9,-99.9,0,0,100,0.00,0.00,14,9,15,0.00
2013-1-8,43.0,39.3,35.0,-99.9,-99.9,-99.9,0,0,100,0.00,0.00,15,10,17,0.00
2013-1-9,50.0,35.1,26.0,-99.9,-99.9,-99.9,0,0,100,0.00,0.00,13,8,13,0.00
2013-1-10,38.0,34.8,31.0,-99.9,-99.9,-99.9,0,0,100,0.00,0.00,18,9,21,0.00
2013-1-11,60.0,42.0,34.0,-99.9,-99.9,-99.9,0,0,100,0.00,0.00,31,16,37,0.00
2013-1-30,33.0,27.0,21.0,-99.9,-99.9,-99.9,0,0,100,0.00,0.00,18,12,22,0.00
2013-1-31,32.0,23.8,15.0,-99.9,-99.9,-99.9,0,0,100,0.00,0.00,21,10,25,0.00
2013-2-1,45.0,31.3,17.0,-99.9,-99.9,-99.9,0,0,100,0.00,0.00,26,14,32,0.00
2013-2-2,53.0,40.1,30.0,-99.9,-99.9,-99.9,0,0,100,0.00,0.00,22,14,26,0.00
2013-2-3,51.0,39.6,27.0,-99.9,-99.9,-99.9,0,0,100,0.00,0.00,18,8,23,0.00
2013-2-4,53.0,38.9,29.0,-99.9,-99.9,-99.9,0,0,100,0.00,0.00,17,10,20,0.00
2013-2-5,57.0,41.8,30.0,-99.9,-99.9,-99.9,0,0,100,0.00,0.00,15,10,20,0.00
2013-2-6,62.0,41.6,27.0,-99.9,-99.9,-99.9,0,0,100,0.00,0.00,16,10,20,0.00
2013-2-7,54.0,42.9,29.0,-99.9,-99.9,-99.9,0,0,100,0.00,0.00,20,11,25,0.00
2013-2-8,54.0,38.4,24.0,-99.9,-99.9,-99.9,0,0,100,0.00,0.00,26,16,32,0.00
2013-2-9,55.0,41.0,33.0,-99.9,-99.9,-99.9,0,0,100,0.00,0.00,31,20,40,0.00
2013-2-10,43.0,32.3,25.0,-99.9,-99.9,-99.9,0,0,100,0.00,0.00,36,25,47,0.00
2013-2-11,37.0,27.8,18.0,-99.9,-99.9,-99.9,0,0,100,0.00,0.00,16,8,21,0.00
2013-2-12,46.0,32.6,23.0,-99.9,-99.9,-99.9,0,0,100,0.00,0.00,19,9,22,0.00
2013-2-13,54.0,35.9,25.0,-99.9,-99.9,-99.9,0,0,100,0.00,0.00,22,14,27,0.00
2013-2-22,24.0,18.6,12.0,-99.9,-99.9,-99.9,0,0,100,0.00,0.00,8,1,9,0.00
2013-2-23,35.0,24.9,13.0,-99.9,-99.9,-99.9,0,0,100,0.00,0.00,17,12,19,0.00
2013-2-24,32.0,24.1,17.0,-99.9,-99.9,-99.9,0,0,100,0.00,0.00,19,8,23,0.00
2013-2-25,33.0,28.9,20.0,-99.9,-99.9,-99.9,0,0,100,0.00,0.00,21,14,25,0.00
2013-2-26,32.0,21.6,10.0,-99.9,-99.9,-99.9,0,0,100,0.00,0.00,13,8,15,0.00
2013-2-27,34.0,28.1,21.0,-99.9,-99.9,-99.9,0,0,100,0.00,0.00,24,14,29,0.00
2013-2-28,36.0,27.4,21.0,-99.9,-99.9,-99.9,0,0,100,0.00,0.00,16,9,18,0.00
2013-3-1,36.0,27.9,19.0,-99.9,-99.9,-99.9,0,0,100,0.00,0.00,14,5,16,0.00
2013-3-2,52.0,36.1,22.0,-99.9,-99.9,-99.9,0,0,100,0.00,0.00,14,7,16,0.00
2013-3-3,56.0,44.4,35.0,-99.9,-99.9,-99.9,0,0,100,0.00,0.00,14,8,17,0.00
2013-3-4,44.0,37.7,27.0,-99.9,-99.9,-99.9,0,0,100,0.00,0.00,29,16,36,0.00
2013-3-5,40.0,29.8,22.0,-99.9,-99.9,-99.9,0,0,100,0.00,0.00,25,15,29,0.00
2013-3-6,45.0,30.1,19.0,-99.9,-99.9,-99.9,0,0,100,0.00,0.00,23,14,28,0.00
2013-3-7,54.0,37.2,22.0,-99.9,-99.9,-99.9,0,0,100,0.00,0.00,15,6,18,0.00
2013-3-8,62.0,45.2,30.0,-99.9,-99.9,-99.9,0,0,100,0.00,0.00,22,12,27,0.00
2013-3-9,62.0,48.3,32.0,-99.9,-99.9,-99.9,0,0,100,0.00,0.00,26,20,33,0.00
2013-3-10,34.0,27.3,19.0,-99.9,-99.9,-99.9,0,0,100,0.00,0.00,33,23,41,0.00
2013-3-11,53.0,34.6,16.0,-99.9,-99.9,-99.9,0,0,100,0.00,0.00,20,11,22,0.00
2013-3-12,48.0,37.9,31.0,-99.9,-99.9,-99.9,0,0,100,0.00,0.00,24,13,31,0.00
2013-3-13,66.0,43.6,25.0,-99.9,-99.9,-99.9,0,0,100,0.00,0.00,21,9,25,0.00
2013-3-14,74.0,57.5,43.0,-99.9,-99.9,-99.9,0,0,100,0.00,0.00,18,11,21,0.00
2013-3-15,80.0,61.1,43.0,-99.9,-99.9,-99.9,0,0,100,0.00,0.00,20,12,24,0.00
2013-3-16,54.0,38.3,30.0,-99.9,-99.9,-99.9,0,0,100,0.00,0.00,20,13,26,0.00
2013-3-17,51.0,35.2,27.0,-99.9,-99.9,-99.9,0,0,100,0.00,0.00,24,12,31,0.00
2013-3-18,52.0,38.6,25.0,-99.9,-99.9,-99.9,0,0,100,0.00,0.00,22,12,27,0.00
2013-3-19,49.0,36.8,27.0,-99.9,-99.9,-99.9,0,0,100,0.00,0.00,22,8,27,0.00
2013-3-20,47.0,33.1,18.0,-99.9,-99.9,-99.9,0,0,100,0.00,0.00,18,9,24,0.00
2013-3-21,51.0,36.8,26.0,-99.9,-99.9,-99.9,0,0,100,0.00,0.00,22,16,26,0.00
2013-3-22,31.0,26.7,21.0,-99.9,-99.9,-99.9,0,0,100,0.00,0.00,12,6,14,0.00
2013-4-1,47.0,40.7,32.0,-99.9,-99.9,-99.9,0,0,100,0.00,0.00,16,10,20,0.00
2013-4-2,48.0,38.7,32.0,-99.9,-99.9,-99.9,0,0,100,0.00,0.00,15,7,18,0.00
2013-4-3,50.0,40.2,30.0,-99.9,-99.9,-99.9,0,0,100,0.00,0.00,20,9,24,0.00
2013-4-4,65.0,44.4,25.0,-99.9,-99.9,-99.9,0,0,100,0.00,0.00,12,7,14,0.00
2013-4-5,76.0,56.3,37.0,-99.9,-99.9,-99.9,0,0,100,0.00,0.00,39,20,70,0.00
2013-4-6,71.0,60.3,49.0,-99.9,-99.9,-99.9,0,0,100,0.00,0.00,27,14,34,0.00
2013-4-7,74.0,59.5,47.0,-99.9,-99.9,-99.9,0,0,100,0.00,0.00,27,13,32,0.00
2013-4-8,71.0,55.7,45.0,-99.9,-99.9,-99.9,0,0,100,0.00,0.00,26,11,32,0.45
2013-4-9,64.0,30.2,19.0,-99.9,-99.9,-99.9,0,0,100,0.00,0.00,27,15,37,0.18
2013-4-10,27.0,23.7,19.0,-99.9,-99.9,-99.9,0,0,100,0.00,0.00,21,13,24,0.00
2013-4-11,46.0,30.6,19.0,-99.9,-99.9,-99.9,0,0,100,0.00,0.00,24,13,30,0.00
2013-4-12,53.0,33.1,24.0,-99.9,-99.9,-99.9,0,0,100,0.00,0.00,19,11,22,0.00
2013-5-16,81.0,69.8,59.0,-99.9,-99.9,-99.9,0,0,100,0.00,0.00,36,14,45,1.18
2013-5-17,84.0,68.6,53.0,-99.9,-99.9,-99.9,0,0,100,0.00,0.00,20,11,27,1.50
2013-5-18,85.0,70.9,63.0,-99.9,-99.9,-99.9,0,0,100,0.00,0.00,32,14,40,0.00
2013-5-19,75.0,63.8,55.0,-99.9,-99.9,-99.9,0,0,100,0.00,0.00,22,13,30,0.00
2013-5-20,71.0,60.4,51.0,-99.9,-99.9,-99.9,0,0,100,0.00,0.00,26,17,35,0.00
2013-5-21,67.0,57.7,51.0,-99.9,-99.9,-99.9,0,0,100,0.00,0.00,27,17,34,0.00
2013-5-22,74.0,58.5,44.0,-99.9,-99.9,-99.9,0,0,100,0.00,0.00,21,11,25,0.00
2013-5-23,70.0,57.4,46.0,-99.9,-99.9,-99.9,0,0,100,0.00,0.00,20,12,23,0.00
2013-5-24,81.0,65.2,55.0,-99.9,-99.9,-99.9,0,0,100,0.00,0.00,25,19,37,0.00
2013-5-25,89.0,75.0,65.0,-99.9,-99.9,-99.9,0,0,100,0.00,0.00,31,18,40,0.46
2013-5-26,93.0,77.3,65.0,-99.9,-99.9,-99.9,0,0,100,0.00,0.00,26,20,62,1.38
2013-5-27,82.0,71.6,64.0,-99.9,-99.9,-99.9,0,0,100,0.00,0.00,25,15,31,0.00
2013-5-28,81.0,68.5,56.0,-99.9,-99.9,-99.9,0,0,100,0.00,0.00,20,11,25,0.00
2013-5-29,84.0,69.8,54.0,-99.9,-99.9,-99.9,0,0,100,0.00,0.00,38,17,87,2.27
2013-5-30,76.0,62.7,54.0,-99.9,-99.9,-99.9,0,0,100,0.00,0.00,31,9,46,3.06
2013-5-31,80.0,65.6,51.0,-99.9,-99.9,-99.9,0,0,100,0.00,0.00,23,14,29,0.00
2013-6-1,67.0,58.5,51.0,-99.9,-99.9,-99.9,0,0,100,0.00,0.00,30,18,36,0.00
2013-6-2,73.0,58.6,42.0,-99.9,-99.9,-99.9,0,0,100,0.00,0.00,16,8,20,0.00
2013-6-3,87.0,67.3,50.0,-99.9,-99.9,-99.9,0,0,100,0.00,0.00,31,18,98,0.00
2013-6-4,76.0,67.6,58.0,-99.9,-99.9,-99.9,0,0,100,0.00,0.00,20,9,24,0.00
2013-6-5,66.0,57.3,51.0,-99.9,-99.9,-99.9,0,0,100,0.00,0.00,20,11,26,1.44
2013-6-6,75.0,60.6,47.0,-99.9,-99.9,-99.9,0,0,100,0.00,0.00,11,5,14,1.00
2013-6-7,79.0,65.3,51.0,-99.9,-99.9,-99.9,0,0,100,0.00,0.00,15,8,19,0.12
2013-6-8,78.0,66.2,58.0,-99.9,-99.9,-99.9,0,0,100,0.00,0.00,23,13,53,0.00
2013-6-9,86.0,70.4,54.0,-99.9,-99.9,-99.9,0,0,100,0.00,0.00,20,11,25,0.00
2013-6-10,100.0,77.3,55.0,-99.9,-99.9,-99.9,0,0,100,0.00,0.00,18,12,21,0.00
2013-6-11,107.0,89.4,71.0,-99.9,-99.9,-99.9,0,0,100,0.00,0.00,31,16,37,0.00
2013-6-12,94.0,80.7,65.0,-99.9,-99.9,-99.9,0,0,100,0.00,0.00,25,15,34,0.00
2013-6-13,86.0,69.5,54.0,-99.9,-99.9,-99.9,0,0,100,0.00,0.00,21,12,25,0.00
2013-6-14,102.0,80.4,65.0,-99.9,-99.9,-99.9,0,0,100,0.00,0.00,33,14,43,0.12
2013-6-15,91.0,77.0,66.0,-99.9,-99.9,-99.9,0,0,100,0.00,0.00,21,10,25,0.30
2013-6-16,88.0,74.1,61.0,-99.9,-99.9,-99.9,0,0,100,0.00,0.00,28,9,37,0.31
2013-6-17,84.0,70.5,56.0,-99.9,-99.9,-99.9,0,0,100,0.00,0.00,15,7,18,1.64
2013-6-18,86.0,70.9,61.0,-99.9,-99.9,-99.9,0,0,100,0.00,0.00,23,10,32,0.12
2013-6-19,86.0,73.5,62.0,-99.9,-99.9,-99.9,0,0,100,0.00,0.00,22,13,27,0.23
2013-6-20,96.0,81.1,69.0,-99.9,-99.9,-99.9,0,0,100,0.00,0.00,26,19,53,0.06
2013-6-21,99.0,84.1,68.0,-99.9,-99.9,-99.9,0,0,100,0.00,0.00,32,20,42,0.16
2013-6-22,95.0,83.4,70.0,-99.9,-99.9,-99.9,0,0,100,0.00,0.00,30,19,38,0.00
2013-6-23,89.0,78.1,64.0,-99.9,-99.9,-99.9,0,0,100,0.00,0.00,23,14,28,0.00
2013-6-24,99.0,81.0,63.0,-99.9,-99.9,-99.9,0,0,100,0.00,0.00,33,15,41,0.00
2013-6-25,98.0,83.1,69.0,-99.9,-99.9,-99.9,0,0,100,0.00,0.00,27,13,32,0.00
2013-6-26,102.0,84.6,62.0,-99.9,-99.9,-99.9,0,0,100,0.00,0.00,13,7,16,0.00
2013-6-27,104.0,85.9,74.0,-99.9,-99.9,-99.9,0,0,100,0.00,0.00,24,13,31,0.00
2013-6-28,94.0,79.5,65.0,-99.9,-99.9,-99.9,0,0,100,0.00,0.00,19,10,30,0.00
2013-6-29,88.0,75.4,61.0,-99.9,-99.9,-99.9,0,0,100,0.00,0.00,21,10,27,0.00
2013-6-30,82.0,70.2,55.0,-99.9,-99.9,-99.9,0,0,100,0.00,0.00,19,8,24,0.00
2013-7-1,81.0,67.7,53.0,-99.9,-99.9,-99.9,0,0,100,0.00,0.00,16,6,20,0.00
2013-7-2,84.0,69.9,53.0,-99.9,-99.9,-99.9,0,0,100,0.00,0.00,12,5,14,0.00
2013-7-3,87.0,72.4,55.0,-99.9,-99.9,-99.9,0,0,100,0.00,0.00,20,12,24,0.00
2013-7-4,92.0,77.3,62.0,-99.9,-99.9,-99.9,0,0,100,0.00,0.00,21,16,28,0.00
2013-7-5,97.0,82.8,68.0,-99.9,-99.9,-99.9,0,0,100,0.00,0.00,24,19,30,0.00
2013-7-6,99.0,80.3,66.0,-99.9,-99.9,-99.9,0,0,100,0.00,0.00,34,19,79,0.45
2013-7-7,97.0,84.1,71.0,-99.9,-99.9,-99.9,0,0,100,0.00,0.00,23,11,28,0.18
2013-7-8,102.0,82.6,70.0,-99.9,-99.9,-99.9,0,0,100,0.00,0.00,23,10,27,0.39
2013-7-9,102.0,83.9,70.0,-99.9,-99.9,-99.9,0,0,100,0.00,0.00,27,9,34,0.20
2013-7-10,91.0,79.0,68.0,-99.9,-99.9,-99.9,0,0,100,0.00,0.00,30,12,36,1.00
2013-7-11,94.0,79.2,68.0,-99.9,-99.9,-99.9,0,0,100,0.00,0.00,19,12,22,0.30
2013-7-12,103.0,86.5,72.0,-99.9,-99.9,-99.9,0,0,100,0.00,0.00,24,17,31,0.00
2013-7-13,105.0,90.8,78.0,-99.9,-99.9,-99.9,0,0,100,0.00,0.00,22,16,28,0.00
2013-7-14,88.0,78.4,66.0,-99.9,-99.9,-99.9,0,0,100,0.00,0.00,23,13,27,0.00
2013-7-15,87.0,72.7,61.0,-99.9,-99.9,-99.9,0,0,100,0.00,0.00,21,9,26,0.00
2013-7-16,86.0,71.3,62.0,-99.9,-99.9,-99.9,0,0,100,0.00,0.00,22,14,28,0.00
2013-7-17,90.0,75.5,61.0,-99.9,-99.9,-99.9,0,0,100,0.00,0.00,22,13,27,0.00
2013-7-18,93.0,79.9,66.0,-99.9,-99.9,-99.9,0,0,100,0.00,0.00,26,17,32,0.00
2013-7-19,97.0,80.5,69.0,-99.9,-99.9,-99.9,0,0,100,0.00,0.00,25,12,29,0.00
2013-7-20,91.0,74.8,63.0,-99.9,-99.9,-99.9,0,0,100,0.00,0.00,23,9,27,0.00
2013-7-21,91.0,75.2,60.0,-99.9,-99.9,-99.9,0,0,100,0.00,0.00,33,9,44,0.00
2013-7-22,99.0,82.3,66.0,-99.9,-99.9,-99.9,0,0,100,0.00,0.00,26,11,35,0.00
2013-7-23,89.0,76.8,67.0,-99.9,-99.9,-99.9,0,0,100,0.00,0.00,23,14,28,0.00
2013-7-24,92.0,74.9,61.0,-99.9,-99.9,-99.9,0,0,100,0.00,0.00,15,6,18,0.00
2013-7-25,78.0,69.0,62.0,-99.9,-99.9,-99.9,0,0,100,0.00,0.00,19,10,22,3.93
2013-7-26,83.0,70.9,62.0,-99.9,-99.9,-99.9,0,0,100,0.00,0.00,15,8,21,4.96
2013-7-27,65.0,60.0,54.0,-99.9,-99.9,-99.9,0,0,100,0.00,0.00,21,12,25,1.71
2013-7-28,61.0,57.4,54.0,-99.9,-99.9,-99.9,0,0,100,0.00,0.00,15,11,18,1.36
2013-7-29,75.0,65.5,61.0,-99.9,-99.9,-99.9,0,0,100,0.00,0.00,16,10,19,0.72
2013-7-30,82.0,71.3,63.0,-99.9,-99.9,-99.9,0,0,100,0.00,0.00,12,6,16,0.12
2013-7-31,85.0,72.7,64.0,-99.9,-99.9,-99.9,0,0,100,0.00,0.00,20,6,22,0.11
2013-8-1,89.0,78.3,67.0,-99.9,-99.9,-99.9,0,0,100,0.00,0.00,27,13,35,0.00
2013-8-2,89.0,75.4,63.0,-99.9,-99.9,-99.9,0,0,100,0.00,0.00,24,14,30,0.00
2013-8-3,74.0,69.9,66.0,-99.9,-99.9,-99.9,0,0,100,0.00,0.00,20,12,25,0.00
2013-8-4,82.0,71.2,64.0,-99.9,-99.9,-99.9,0,0,100,0.00,0.00,16,9,19,0.18
2013-8-5,87.0,73.9,68.0,-99.9,-99.9,-99.9,0,0,100,0.00,0.00,15,8,18,0.06
2013-8-6,85.0,75.2,68.0,-99.9,-99.9,-99.9,0,0,100,0.00,0.00,13,5,15,0.00
2013-8-7,82.0,73.1,61.0,-99.9,-99.9,-99.9,0,0,100,0.00,0.00,44,10,55,1.87
2013-8-8,76.0,68.4,64.0,-99.9,-99.9,-99.9,0,0,100,0.00,0.00,13,4,14,0.79
2013-8-9,82.0,69.6,59.0,-99.9,-99.9,-99.9,0,0,100,0.00,0.00,14,6,17,0.00
2013-8-10,83.0,70.6,59.0,-99.9,-99.9,-99.9,0,0,100,0.00,0.00,19,12,26,0.00
2013-8-11,85.0,73.8,62.0,-99.9,-99.9,-99.9,0,0,100,0.00,0.00,17,11,22,0.00
2013-8-12,83.0,70.9,59.0,-99.9,-99.9,-99.9,0,0,100,0.00,0.00,19,8,22,0.06
2013-8-13,80.0,69.7,62.0,-99.9,-99.9,-99.9,0,0,100,0.00,0.00,21,8,28,0.24
2013-8-14,75.0,65.0,58.0,-99.9,-99.9,-99.9,0,0,100,0.00,0.00,16,8,20,1.98
2013-8-15,84.0,69.1,61.0,-99.9,-99.9,-99.9,0,0,100,0.00,0.00,26,8,31,2.07
2013-8-16,81.0,67.8,60.0,-99.9,-99.9,-99.9,0,0,100,0.00,0.00,13,8,17,1.24
2013-8-17,75.0,69.5,65.0,-99.9,-99.9,-99.9,0,0,100,0.00,0.00,16,12,19,0.24
2013-8-18,81.0,70.9,61.0,-99.9,-99.9,-99.9,0,0,100,0.00,0.00,18,13,23,0.00
2013-8-19,90.0,74.4,63.0,-99.9,-99.9,-99.9,0,0,100,0.00,0.00,17,12,20,0.00
2013-8-20,93.0,77.8,63.0,-99.9,-99.9,-99.9,0,0,100,0.00,0.00,20,14,24,0.00
2013-8-21,98.0,81.8,69.0,-99.9,-99.9,-99.9,0,0,100,0.00,0.00,24,17,31,0.00
2013-8-22,95.0,80.9,69.0,-99.9,-99.9,-99.9,0,0,100,0.00,0.00,21,11,26,0.00
2013-8-23,95.0,79.2,68.0,-99.9,-99.9,-99.9,0,0,100,0.00,0.00,21,10,25,0.16
2013-8-24,98.0,83.0,69.0,-99.9,-99.9,-99.9,0,0,100,0.00,0.00,26,18,33,0.06
2013-8-25,98.0,84.1,72.0,-99.9,-99.9,-99.9,0,0,100,0.00,0.00,24,19,29,0.00
2013-8-26,100.0,85.0,73.0,-99.9,-99.9,-99.9,0,0,100,0.00,0.00,24,19,30,0.00
2013-8-27,99.0,83.1,70.0,-99.9,-99.9,-99.9,0,0,100,0.00,0.00,22,16,27,0.00
2013-8-28,96.0,80.4,66.0,-99.9,-99.9,-99.9,0,0,100,0.00,0.00,18,14,22,0.00
2013-8-29,101.0,84.4,69.0,-99.9,-99.9,-99.9,0,0,100,0.00,0.00,17,10,21,0.00
2013-8-30,103.0,85.5,67.0,-99.9,-99.9,-99.9,0,0,100,0.00,0.00,21,8,29,0.00
2013-8-31,97.0,82.2,68.0,-99.9,-99.9,-99.9,0,0,100,0.00,0.00,20,8,25,0.06
2013-9-1,87.0,77.5,68.0,-99.9,-99.9,-99.9,0,0,100,0.00,0.00,22,11,27,0.00
2013-9-2,88.0,73.7,57.0,-99.9,-99.9,-99.9,0,0,100,0.00,0.00,14,6,17,0.00
2013-9-3,94.0,77.6,63.0,-99.9,-99.9,-99.9,0,0,100,0.00,0.00,21,13,26,0.00
2013-9-4,98.0,80.9,66.0,-99.9,-99.9,-99.9,0,0,100,0.00,0.00,21,14,25,0.00
2013-9-5,96.0,79.3,63.0,-99.9,-99.9,-99.9,0,0,100,0.00,0.00,19,11,22,0.00
2013-9-6,102.0,83.0,65.0,-99.9,-99.9,-99.9,0,0,100,0.00,0.00,20,14,24,0.00
2013-9-7,104.0,85.8,66.0,-99.9,-99.9,-99.9,0,0,100,0.00,0.00,17,11,21,0.00
2013-9-8,101.0,85.8,69.0,-99.9,-99.9,-99.9,0,0,100,0.00,0.00,21,12,25,0.00
2013-9-9,96.0,83.1,69.0,-99.9,-99.9,-99.9,0,0,100,0.00,0.00,24,18,31,0.00
2013-9-10,95.0,78.6,66.0,-99.9,-99.9,-99.9,0,0,100,0.00,0.00,27,13,37,1.58
2013-9-11,87.0,71.9,66.0,-99.9,-99.9,-99.9,0,0,100,0.00,0.00,11,5,13,1.56
2013-9-13,69.0,63.6,59.0,-99.9,-99.9,-99.9,0,0,100,0.00,0.00,15,12,19,0.81
2013-9-14,78.0,65.6,58.0,-99.9,-99.9,-99.9,0,0,100,0.00,0.00,21,14,25,0.54
2013-9-15,69.0,67.2,65.0,-99.9,-99.9,-99.9,0,0,100,0.00,0.00,16,7,19,0.00
2013-9-23,77.0,67.0,58.0,-99.9,-99.9,-99.9,0,0,100,0.00,0.00,33,21,64,0.00
2013-9-24,77.0,63.3,53.0,-99.9,-99.9,-99.9,0,0,100,0.00,0.00,23,14,28,0.00
2013-9-25,85.0,67.2,50.0,-99.9,-99.9,-99.9,0,0,100,0.00,0.00,30,18,37,0.00
2013-9-26,94.0,76.5,62.0,-99.9,-99.9,-99.9,0,0,100,0.00,0.00,25,19,31,0.00
2013-9-27,85.0,73.6,51.0,-99.9,-99.9,-99.9,0,0,100,0.00,0.00,34,19,42,0.86
2013-9-28,67.0,54.8,45.0,-99.9,-99.9,-99.9,0,0,100,0.00,0.00,24,13,30,6.51
2013-9-29,77.0,60.6,47.0,-99.9,-99.9,-99.9,0,0,100,0.00,0.00,21,14,27,0.00
2013-9-30,79.0,63.0,46.0,-99.9,-99.9,-99.9,0,0,100,0.00,0.00,17,12,19,0.00
2013-10-1,75.0,63.0,48.0,-99.9,-99.9,-99.9,0,0,100,0.00,0.00,18,9,24,0.00
2013-10-2,81.0,68.1,59.0,-99.9,-99.9,-99.9,0,0,100,0.00,0.00,17,10,20,0.00
2013-10-3,81.0,67.6,58.0,-99.9,-99.9,-99.9,0,0,100,0.00,0.00,18,11,21,0.00
2013-10-4,65.0,54.1,40.0,-99.9,-99.9,-99.9,0,0,100,0.00,0.00,34,16,43,0.17
2013-10-5,53.0,44.4,37.0,-99.9,-99.9,-99.9,0,0,100,0.00,0.00,32,21,38,0.06
2013-10-6,68.0,52.9,42.0,-99.9,-99.9,-99.9,0,0,100,0.00,0.00,28,18,33,0.00
2013-10-7,78.0,58.8,41.0,-99.9,-99.9,-99.9,0,0,100,0.00,0.00,18,11,20,0.00
2013-10-8,82.0,64.8,50.0,-99.9,-99.9,-99.9,0,0,100,0.00,0.00,29,21,36,0.00
2013-10-9,81.0,66.2,54.0,-99.9,-99.9,-99.9,0,0,100,0.00,0.00,26,20,32,0.00
2013-10-10,83.0,66.5,51.0,-99.9,-99.9,-99.9,0,0,100,0.00,0.00,33,18,102,0.62
2013-10-11,68.0,58.0,49.0,-99.9,-99.9,-99.9,0,0,100,0.00,0.00,30,16,37,2.16
2013-10-12,64.0,53.3,47.0,-99.9,-99.9,-99.9,0,0,100,0.00,0.00,13,6,17,0.00
2013-10-13,68.0,54.6,41.0,-99.9,-99.9,-99.9,0,0,100,0.00,0.00,23,15,27,0.00
2013-10-14,68.0,56.8,44.0,-99.9,-99.9,-99.9,0,0,100,0.00,0.00,31,21,38,4.60
2013-10-15,51.0,42.9,35.0,-99.9,-99.9,-99.9,0,0,100,0.00,0.00,30,18,36,2.58
2013-10-16,56.0,41.5,31.0,-99.9,-99.9,-99.9,0,0,100,0.00,0.00,14,9,19,0.00
2013-10-17,57.0,44.1,35.0,-99.9,-99.9,-99.9,0,0,100,0.00,0.00,18,11,21,0.00
2013-10-18,49.0,37.7,32.0,-99.9,-99.9,-99.9,0,0,100,0.00,0.00,20,7,22,1.00
2013-10-19,65.0,46.7,32.0,-99.9,-99.9,-99.9,0,0,100,0.00,0.00,19,11,22,0.48
2013-10-20,60.0,49.9,38.0,-99.9,-99.9,-99.9,0,0,100,0.00,0.00,19,10,21,0.00
2013-10-21,61.0,46.2,31.0,-99.9,-99.9,-99.9,0,0,100,0.00,0.00,19,9,22,0.00
2013-10-22,65.0,54.4,44.0,-99.9,-99.9,-99.9,0,0,100,0.00,0.00,21,10,30,0.00
2013-10-23,69.0,48.8,34.0,-99.9,-99.9,-99.9,0,0,100,0.00,0.00,20,10,24,0.00
2013-10-24,49.0,40.7,33.0,-99.9,-99.9,-99.9,0,0,100,0.00,0.00,12,4,15,0.00
2013-10-25,59.0,44.5,33.0,-99.9,-99.9,-99.9,0,0,100,0.00,0.00,23,14,27,0.00
2013-10-26,59.0,47.9,40.0,-99.9,-99.9,-99.9,0,0,100,0.00,0.00,18,9,21,0.00
2013-10-27,77.0,55.2,39.0,-99.9,-99.9,-99.9,0,0,100,0.00,0.00,18,13,21,0.00
2013-10-28,53.0,45.4,37.0,-99.9,-99.9,-99.9,0,0,100,0.00,0.00,20,12,23,0.49
2013-10-29,43.0,41.0,39.0,-99.9,-99.9,-99.9,0,0,100,0.00,0.00,16,10,20,1.73
2013-10-30,50.0,41.3,35.0,-99.9,-99.9,-99.9,0,0,100,0.00,0.00,14,5,18,0.25
2013-10-31,61.0,46.8,33.0,-99.9,-99.9,-99.9,0,0,100,0.00,0.00,29,14,36,0.06
2013-11-1,59.0,48.1,37.0,-99.9,-99.9,-99.9,0,0,100,0.00,0.00,26,16,34,0.00
2013-11-2,60.0,44.9,31.0,-99.9,-99.9,-99.9,0,0,100,0.00,0.00,22,11,28,0.00
2013-11-3,72.0,53.6,43.0,-99.9,-99.9,-99.9,0,0,100,0.00,0.00,35,22,41,0.00
2013-11-4,55.0,45.5,35.0,-99.9,-99.9,-99.9,0,0,100,0.00,0.00,26,11,32,0.00
2013-11-5,41.0,36.0,29.0,-99.9,-99.9,-99.9,0,0,100,0.00,0.00,24,12,27,7.06
2013-11-6,50.0,37.1,26.0,-99.9,-99.9,-99.9,0,0,100,0.00,0.00,16,8,18,2.45
2013-11-7,54.0,40.7,29.0,-99.9,-99.9,-99.9,0,0,100,0.00,0.00,16,8,19,0.00
2013-11-8,68.0,50.8,34.0,-99.9,-99.9,-99.9,0,0,100,0.00,0.00,19,10,22,0.00
2013-11-9,61.0,48.3,37.0,-99.9,-99.9,-99.9,0,0,100,0.00,0.00,10,5,14,0.00
2013-11-10,56.0,43.6,33.0,-99.9,-99.9,-99.9,0,0,100,0.00,0.00,17,10,19,0.00
2013-11-11,46.0,34.5,24.0,-99.9,-99.9,-99.9,0,0,100,0.00,0.00,24,14,30,0.00
2013-11-12,41.0,28.0,17.0,-99.9,-99.9,-99.9,0,0,100,0.00,0.00,15,8,17,0.00
2013-11-13,61.0,43.4,28.0,-99.9,-99.9,-99.9,0,0,100,0.00,0.00,21,17,26,0.00
2013-11-14,59.0,44.1,38.0,-99.9,-99.9,-99.9,0,0,100,0.00,0.00,18,10,21,0.00
2013-11-15,61.0,46.0,33.0,-99.9,-99.9,-99.9,0,0,100,0.00,0.00,22,12,26,0.00
2013-11-16,61.0,49.3,41.0,-99.9,-99.9,-99.9,0,0,100,0.00,0.00,18,9,21,0.00
2013-11-17,52.0,43.8,38.0,-99.9,-99.9,-99.9,0,0,100,0.00,0.00,36,17,45,0.00
2013-11-18,60.0,48.2,33.0,-99.9,-99.9,-99.9,0,0,100,0.00,0.00,21,15,24,0.00
2013-11-19,59.0,44.2,30.0,-99.9,-99.9,-99.9,0,0,100,0.00,0.00,25,15,29,0.00
2013-11-20,64.0,50.2,37.0,-99.9,-99.9,-99.9,0,0,100,0.00,0.00,17,7,19,0.00
2013-11-21,44.0,23.5,17.0,-99.9,-99.9,-99.9,0,0,100,0.00,0.00,27,20,34,0.00
2013-11-22,32.0,23.2,15.0,-99.9,-99.9,-99.9,0,0,100,0.00,0.00,21,9,27,0.00
2013-11-23,28.0,22.9,16.0,-99.9,-99.9,-99.9,0,0,100,0.00,0.00,13,7,16,0.00
2013-11-24,36.0,26.4,15.0,-99.9,-99.9,-99.9,0,0,100,0.00,0.00,22,15,27,0.00
2013-11-25,46.0,30.4,25.0,-99.9,-99.9,-99.9,0,0,100,0.00,0.00,18,8,23,0.00
2013-11-26,36.0,28.0,22.0,-99.9,-99.9,-99.9,0,0,100,0.00,0.00,21,9,25,0.00
2013-11-27,53.0,33.3,14.0,-99.9,-99.9,-99.9,0,0,100,0.00,0.00,21,13,24,0.00
2013-11-28,37.0,29.5,20.0,-99.9,-99.9,-99.9,0,0,100,0.00,0.00,13,8,17,0.00
2013-11-29,50.0,31.5,17.0,-99.9,-99.9,-99.9,0,0,100,0.00,0.00,19,8,21,0.00
2013-11-30,62.0,44.0,29.0,-99.9,-99.9,-99.9,0,0,100,0.00,0.00,15,9,17,0.00
2013-12-1,58.0,40.1,25.0,-99.9,-99.9,-99.9,0,0,100,0.00,0.00,14,8,17,0.00
2013-12-2,68.0,51.0,39.0,-99.9,-99.9,-99.9,0,0,100,0.00,0.00,26,12,31,0.00
2013-12-3,56.0,41.7,25.0,-99.9,-99.9,-99.9,0,0,100,0.00,0.00,21,10,27,0.00
2013-12-4,25.0,17.9,13.0,-99.9,-99.9,-99.9,0,0,100,0.00,0.00,26,20,32,0.00
2013-12-5,14.0,9.2,3.0,-99.9,-99.9,-99.9,0,0,100,0.00,0.00,18,11,22,0.00
2013-12-6,14.0,7.2,2.0,-99.9,-99.9,-99.9,0,0,100,0.00,0.00,14,8,138,0.00
2013-12-7,11.0,5.1,-2.0,-99.9,-99.9,-99.9,0,0,100,0.00,0.00,17,11,20,0.00
2013-12-8,14.0,9.0,1.0,-99.9,-99.9,-99.9,0,0,100,0.00,0.00,10,3,14,0.00
2013-12-9,17.0,7.9,-4.0,-99.9,-99.9,-99.9,0,0,100,0.00,0.00,18,9,23,0.00
2013-12-10,38.0,24.7,14.0,-99.9,-99.9,-99.9,0,0,100,0.00,0.00,21,11,25,0.00
2013-12-11,28.0,19.4,10.0,-99.9,-99.9,-99.9,0,0,100,0.00,0.00,18,10,23,0.00
2013-12-12,49.0,29.9,17.0,-99.9,-99.9,-99.9,0,0,100,0.00,0.00,17,8,21,0.00
2013-12-13,42.0,27.0,17.0,-99.9,-99.9,-99.9,0,0,100,0.00,0.00,18,6,22,0.00
2013-12-14,47.0,30.1,16.0,-99.9,-99.9,-99.9,0,0,100,0.00,0.00,19,12,24,0.00
2013-12-15,59.0,41.7,29.0,-99.9,-99.9,-99.9,0,0,100,0.00,0.00,24,14,32,0.00
2013-12-16,60.0,44.1,34.0,-99.9,-99.9,-99.9,0,0,100,0.00,0.00,19,10,21,0.00
2013-12-17,51.0,37.3,24.0,-99.9,-99.9,-99.9,0,0,100,0.00,0.00,21,10,26,0.00
2013-12-18,71.0,46.9,34.0,-99.9,-99.9,-99.9,0,0,100,0.00,0.00,21,8,25,0.00
2013-12-19,43.0,32.0,13.0,-99.9,-99.9,-99.9,0,0,100,0.00,0.00,26,13,32,0.00
2013-12-20,23.0,16.6,13.0,-99.9,-99.9,-99.9,0,0,100,0.00,0.00,23,10,27,0.00
2013-12-21,29.0,21.2,14.0,-99.9,-99.9,-99.9,0,0,100,0.00,0.00,14,7,18,0.00
2013-12-22,33.0,20.7,9.0,-99.9,-99.9,-99.9,0,0,100,0.00,0.00,15,8,17,0.00
2013-12-23,19.0,14.2,10.0,-99.9,-99.9,-99.9,0,0,100,0.00,0.00,15,8,18,0.00
2013-12-24,45.0,27.9,16.0,-99.9,-99.9,-99.9,0,0,100,0.00,0.00,19,11,22,0.00
2013-12-25,44.0,32.9,26.0,-99.9,-99.9,-99.9,0,0,100,0.00,0.00,20,12,24,0.00
2013-12-26,55.0,38.0,25.0,-99.9,-99.9,-99.9,0,0,100,0.00,0.00,21,12,25,0.00
2013-12-27,65.0,44.6,30.0,-99.9,-99.9,-99.9,0,0,100,0.00,0.00,18,12,21,0.00
2013-12-28,64.0,39.0,17.0,-99.9,-99.9,-99.9,0,0,100,0.00,0.00,27,15,35,0.00
2013-12-29,22.0,13.9,9.0,-99.9,-99.9,-99.9,0,0,100,0.00,0.00,29,14,34,0.00
2013-12-30,50.0,32.3,14.0,-99.9,-99.9,-99.9,0,0,100,0.00,0.00,25,12,32,0.00
2013-12-31,59.0,37.8,21.0,-99.9,-99.9,-99.9,0,0,100,0.00,0.00,19,11,22,0.00
2014-1-1,24.0,18.0,14.0,-99.9,-99.9,-99.9,0,0,100,0.00,0.00,20,11,24,0.00
2014-1-2,41.0,24.2,12.0,-99.9,-99.9,-99.9,0,0,100,0.00,0.00,15,9,17,0.00